Time,TemperatureF,DewpointF,PressureIn,WindDirection,WindDirectionDegrees,WindSpeedMPH,WindSpeedGustMPH,Humidity,HourlyPrecipIn,Conditions,Clouds,dailyrainin,SoftwareType,DateUTC
2013-09-28 00:00:00,70.1,62.6,29.64,ESE,121,6.0,13.0,77,0.00,,,0.04,Wunderground v.1.15,2013-09-28 05:00:00,
2013-09-28 00:02:00,70.1,62.6,29.64,SSE,151,6.0,13.0,77,0.00,,,0.04,Wunderground v.1.15,2013-09-28 05:02:00,
2013-09-28 00:06:00,69.9,62.4,29.64,SE,132,5.0,13.0,77,0.00,,,0.00,Wunderground v.1.15,2013-09-28 05:06:00,
2013-09-28 00:08:00,69.9,62.7,29.64,SE,139,5.0,13.0,78,0.00,,,0.00,Wunderground v.1.15,2013-09-28 05:08:00,
2013-09-28 00:10:00,69.8,62.3,29.64,SE,142,5.0,5.0,77,0.00,,,0.00,Wunderground v.1.15,2013-09-28 05:10:00,
2013-09-28 00:12:00,69.8,62.3,29.64,East,101,5.0,6.0,77,0.00,,,0.00,Wunderground v.1.15,2013-09-28 05:12:00,
2013-09-28 00:18:00,69.7,62.5,29.64,SSE,160,5.0,6.0,78,0.00,,,0.00,Wunderground v.1.15,2013-09-28 05:18:00,
2013-09-28 00:20:00,69.7,62.5,29.63,SE,143,5.0,5.0,78,0.00,,,0.00,Wunderground v.1.15,2013-09-28 05:20:00,
2013-09-28 00:22:00,69.6,62.4,29.63,SSE,160,5.0,5.0,78,0.00,,,0.00,Wunderground v.1.15,2013-09-28 05:22:00,
2013-09-28 00:24:00,69.6,62.4,29.63,SE,140,5.0,8.0,78,0.00,,,0.00,Wunderground v.1.15,2013-09-28 05:24:00,
2013-09-28 00:26:00,69.5,62.3,29.63,SE,136,5.0,8.0,78,0.00,,,0.00,Wunderground v.1.15,2013-09-28 05:26:00,
2013-09-28 00:32:00,69.5,62.3,29.62,SSE,148,6.0,6.0,78,0.00,,,0.00,Wunderground v.1.15,2013-09-28 05:32:00,
2013-09-28 00:34:00,69.5,62.7,29.62,SE,136,6.0,6.0,79,0.00,,,0.00,Wunderground v.1.15,2013-09-28 05:34:00,
2013-09-28 00:38:00,69.4,62.6,29.62,ESE,114,6.0,7.0,79,0.00,,,0.00,Wunderground v.1.15,2013-09-28 05:38:00,
2013-09-28 00:40:00,69.3,62.5,29.62,SSE,149,6.0,7.0,79,0.00,,,0.00,Wunderground v.1.15,2013-09-28 05:40:00,
2013-09-28 00:44:00,69.3,62.5,29.62,SE,133,6.0,7.0,79,0.00,,,0.00,Wunderground v.1.15,2013-09-28 05:44:00,
2013-09-28 00:46:00,69.2,62.4,29.62,SSE,158,6.0,7.0,79,0.00,,,0.00,Wunderground v.1.15,2013-09-28 05:46:00,
2013-09-28 00:48:00,69.2,62.4,29.62,SE,128,6.0,8.0,79,0.00,,,0.00,Wunderground v.1.15,2013-09-28 05:48:00,
2013-09-28 00:52:00,69.2,62.4,29.62,SSE,162,6.0,7.0,79,0.00,,,0.00,Wunderground v.1.15,2013-09-28 05:52:00,
2013-09-28 00:54:00,69.2,62.4,29.62,SSE,148,6.0,7.0,79,0.00,,,0.00,Wunderground v.1.15,2013-09-28 05:54:00,
2013-09-28 00:56:00,69.1,62.3,29.62,SE,145,5.0,7.0,79,0.00,,,0.00,Wunderground v.1.15,2013-09-28 05:56:00,
2013-09-28 01:00:00,69.1,62.3,29.62,SSE,160,5.0,5.0,79,0.00,,,0.00,Wunderground v.1.15,2013-09-28 06:00:00,
2013-09-28 01:04:00,69.1,62.7,29.62,SSE,150,5.0,8.0,80,0.00,,,0.00,Wunderground v.1.15,2013-09-28 06:04:00,
2013-09-28 01:06:00,69.1,62.3,29.63,SSE,165,6.0,10.0,79,0.00,,,0.00,Wunderground v.1.15,2013-09-28 06:06:00,
2013-09-28 01:12:00,69.1,62.3,29.62,SE,135,6.0,10.0,79,0.00,,,0.00,Wunderground v.1.15,2013-09-28 06:12:00,
2013-09-28 01:16:00,69.2,62.4,29.62,SSE,158,6.0,10.0,79,0.00,,,0.00,Wunderground v.1.15,2013-09-28 06:16:00,
2013-09-28 01:18:00,69.3,62.5,29.62,SE,146,6.0,10.0,79,0.00,,,0.00,Wunderground v.1.15,2013-09-28 06:18:00,
2013-09-28 01:20:00,69.2,62.4,29.61,South,179,6.0,10.0,79,0.00,,,0.00,Wunderground v.1.15,2013-09-28 06:20:00,
2013-09-28 01:22:00,69.2,62.4,29.61,SSE,148,6.0,10.0,79,0.00,,,0.00,Wunderground v.1.15,2013-09-28 06:22:00,
2013-09-28 01:24:00,69.3,62.5,29.61,SE,139,6.0,10.0,79,0.00,,,0.00,Wunderground v.1.15,2013-09-28 06:24:00,
2013-09-28 01:26:00,69.3,62.5,29.61,SSE,160,6.0,10.0,79,0.00,,,0.00,Wunderground v.1.15,2013-09-28 06:26:00,
2013-09-28 01:28:00,69.3,62.5,29.61,SE,142,5.0,10.0,79,0.00,,,0.00,Wunderground v.1.15,2013-09-28 06:28:00,
2013-09-28 01:30:00,69.3,62.5,29.61,South,176,6.0,6.0,79,0.00,,,0.00,Wunderground v.1.15,2013-09-28 06:30:00,
2013-09-28 01:32:00,69.4,62.6,29.61,SE,136,6.0,10.0,79,0.00,,,0.00,Wunderground v.1.15,2013-09-28 06:32:00,
2013-09-28 01:36:00,69.4,62.2,29.61,SSE,148,6.0,10.0,78,0.00,,,0.00,Wunderground v.1.15,2013-09-28 06:36:00,
2013-09-28 01:38:00,69.4,62.2,29.61,SSE,153,6.0,10.0,78,0.00,,,0.00,Wunderground v.1.15,2013-09-28 06:38:00,
2013-09-28 01:40:00,69.4,62.2,29.60,SE,134,6.0,10.0,78,0.00,,,0.00,Wunderground v.1.15,2013-09-28 06:40:00,
2013-09-28 01:46:00,69.4,62.2,29.60,SE,138,6.0,10.0,78,0.00,,,0.00,Wunderground v.1.15,2013-09-28 06:46:00,
2013-09-28 01:48:00,69.3,62.5,29.60,SSE,148,6.0,10.0,79,0.00,,,0.00,Wunderground v.1.15,2013-09-28 06:48:00,
2013-09-28 01:52:00,69.2,62.4,29.60,South,173,6.0,10.0,79,0.00,,,0.00,Wunderground v.1.15,2013-09-28 06:52:00,
2013-09-28 01:54:00,69.2,62.4,29.60,South,180,6.0,10.0,79,0.00,,,0.00,Wunderground v.1.15,2013-09-28 06:54:00,
2013-09-28 01:56:00,69.2,62.4,29.60,SSE,153,6.0,10.0,79,0.00,,,0.00,Wunderground v.1.15,2013-09-28 06:56:00,
2013-09-28 02:00:00,69.2,62.4,29.60,SSE,150,6.0,6.0,79,0.00,,,0.00,Wunderground v.1.15,2013-09-28 07:00:00,
2013-09-28 02:02:00,69.2,62.4,29.60,SE,131,6.0,7.0,79,0.00,,,0.00,Wunderground v.1.15,2013-09-28 07:02:00,
2013-09-28 02:04:00,69.1,62.3,29.60,SE,136,6.0,10.0,79,0.00,,,0.00,Wunderground v.1.15,2013-09-28 07:04:00,
2013-09-28 02:08:00,69.1,62.3,29.60,SSE,160,7.0,10.0,79,0.00,,,0.00,Wunderground v.1.15,2013-09-28 07:08:00,
2013-09-28 02:10:00,69.0,62.2,29.60,SE,138,7.0,10.0,79,0.00,,,0.00,Wunderground v.1.15,2013-09-28 07:10:00,
2013-09-28 02:14:00,69.0,62.2,29.59,SSE,167,7.0,10.0,79,0.00,,,0.00,Wunderground v.1.15,2013-09-28 07:14:00,
2013-09-28 02:16:00,69.0,62.2,29.59,SSE,167,7.0,10.0,79,0.00,,,0.00,Wunderground v.1.15,2013-09-28 07:16:00,
2013-09-28 02:20:00,68.9,62.1,29.59,SSE,148,7.0,7.0,79,0.00,,,0.00,Wunderground v.1.15,2013-09-28 07:20:00,
2013-09-28 02:24:00,68.8,62.0,29.59,SE,124,7.0,10.0,79,0.00,,,0.00,Wunderground v.1.15,2013-09-28 07:24:00,
2013-09-28 02:28:00,68.7,62.3,29.59,SSE,156,7.0,10.0,80,0.00,,,0.00,Wunderground v.1.15,2013-09-28 07:28:00,
2013-09-28 02:30:00,68.6,62.2,29.59,SE,142,6.0,10.0,80,0.00,,,0.00,Wunderground v.1.15,2013-09-28 07:30:00,
2013-09-28 02:34:00,68.5,62.1,29.58,SE,134,6.0,10.0,80,0.00,,,0.00,Wunderground v.1.15,2013-09-28 07:34:00,
2013-09-28 02:36:00,68.4,62.0,29.59,SSE,149,6.0,10.0,80,0.00,,,0.00,Wunderground v.1.15,2013-09-28 07:36:00,
2013-09-28 02:40:00,68.3,61.9,29.59,SSE,156,6.0,10.0,80,0.00,,,0.00,Wunderground v.1.15,2013-09-28 07:40:00,
2013-09-28 02:42:00,68.3,62.2,29.59,SSE,148,6.0,10.0,81,0.00,,,0.00,Wunderground v.1.15,2013-09-28 07:42:00,
2013-09-28 02:44:00,68.3,62.2,29.58,SSE,148,7.0,10.0,81,0.00,,,0.00,Wunderground v.1.15,2013-09-28 07:44:00,
2013-09-28 02:46:00,68.3,61.9,29.58,SE,145,7.0,10.0,80,0.00,,,0.00,Wunderground v.1.15,2013-09-28 07:46:00,
2013-09-28 02:48:00,68.3,62.2,29.58,SE,125,7.0,10.0,81,0.00,,,0.00,Wunderground v.1.15,2013-09-28 07:48:00,
2013-09-28 02:50:00,68.3,62.2,29.58,SSE,160,7.0,10.0,81,0.00,,,0.00,Wunderground v.1.15,2013-09-28 07:50:00,
2013-09-28 02:52:00,68.3,62.2,29.58,SE,142,7.0,10.0,81,0.00,,,0.00,Wunderground v.1.15,2013-09-28 07:52:00,
2013-09-28 02:54:00,68.2,62.1,29.59,SE,134,7.0,10.0,81,0.00,,,0.00,Wunderground v.1.15,2013-09-28 07:54:00,
2013-09-28 02:58:00,68.2,62.1,29.58,SE,145,7.0,10.0,81,0.00,,,0.00,Wunderground v.1.15,2013-09-28 07:58:00,
2013-09-28 03:00:00,68.1,62.0,29.58,SE,145,7.0,7.0,81,0.00,,,0.00,Wunderground v.1.15,2013-09-28 08:00:00,
2013-09-28 03:04:00,68.1,62.0,29.58,South,173,7.0,10.0,81,0.00,,,0.00,Wunderground v.1.15,2013-09-28 08:04:00,
2013-09-28 03:06:00,68.1,62.0,29.58,SSE,149,7.0,10.0,81,0.00,,,0.00,Wunderground v.1.15,2013-09-28 08:06:00,
2013-09-28 03:08:00,68.1,62.0,29.58,SSE,155,7.0,10.0,81,0.00,,,0.00,Wunderground v.1.15,2013-09-28 08:08:00,
2013-09-28 03:10:00,68.1,62.0,29.58,SE,134,7.0,10.0,81,0.00,,,0.00,Wunderground v.1.15,2013-09-28 08:10:00,
2013-09-28 03:12:00,68.1,62.0,29.58,SE,129,8.0,10.0,81,0.00,,,0.00,Wunderground v.1.15,2013-09-28 08:12:00,
2013-09-28 03:16:00,68.1,62.0,29.57,SSE,149,8.0,10.0,81,0.00,,,0.00,Wunderground v.1.15,2013-09-28 08:16:00,
2013-09-28 03:18:00,68.1,62.0,29.57,SSE,158,8.0,10.0,81,0.00,,,0.00,Wunderground v.1.15,2013-09-28 08:18:00,
2013-09-28 03:20:00,68.1,62.0,29.58,SSE,155,7.0,7.0,81,0.00,,,0.00,Wunderground v.1.15,2013-09-28 08:20:00,
2013-09-28 03:22:00,68.1,62.0,29.57,SE,136,7.0,10.0,81,0.00,,,0.00,Wunderground v.1.15,2013-09-28 08:22:00,
2013-09-28 03:26:00,68.2,62.1,29.57,SE,135,7.0,10.0,81,0.00,,,0.00,Wunderground v.1.15,2013-09-28 08:26:00,
2013-09-28 03:28:00,68.1,62.0,29.57,SE,134,7.0,10.0,81,0.00,,,0.00,Wunderground v.1.15,2013-09-28 08:28:00,
2013-09-28 03:30:00,68.2,62.1,29.57,SSE,160,7.0,7.0,81,0.00,,,0.00,Wunderground v.1.15,2013-09-28 08:30:00,
2013-09-28 03:32:00,68.2,62.1,29.57,SE,129,7.0,10.0,81,0.00,,,0.00,Wunderground v.1.15,2013-09-28 08:32:00,
2013-09-28 03:38:00,68.4,62.0,29.56,SE,143,8.0,10.0,80,0.00,,,0.00,Wunderground v.1.15,2013-09-28 08:38:00,
2013-09-28 03:40:00,68.5,62.1,29.56,SE,128,8.0,10.0,80,0.00,,,0.00,Wunderground v.1.15,2013-09-28 08:40:00,
2013-09-28 03:44:00,68.5,62.1,29.56,SE,141,8.0,10.0,80,0.00,,,0.00,Wunderground v.1.15,2013-09-28 08:44:00,
2013-09-28 03:46:00,68.6,62.2,29.56,ESE,120,8.0,10.0,80,0.00,,,0.00,Wunderground v.1.15,2013-09-28 08:46:00,
2013-09-28 03:52:00,68.7,61.9,29.56,SE,145,8.0,10.0,79,0.00,,,0.00,Wunderground v.1.15,2013-09-28 08:52:00,
2013-09-28 03:54:00,68.7,62.3,29.56,SE,140,8.0,11.0,80,0.00,,,0.00,Wunderground v.1.15,2013-09-28 08:54:00,
2013-09-28 03:56:00,68.7,61.9,29.55,SSE,159,8.0,11.0,79,0.00,,,0.00,Wunderground v.1.15,2013-09-28 08:56:00,
2013-09-28 03:58:00,68.7,61.9,29.55,SE,128,8.0,11.0,79,0.00,,,0.00,Wunderground v.1.15,2013-09-28 08:58:00,
2013-09-28 04:02:00,68.7,61.9,29.55,ESE,122,8.0,10.0,79,0.00,,,0.00,Wunderground v.1.15,2013-09-28 09:02:00,
2013-09-28 04:04:00,68.8,62.0,29.55,SSE,149,8.0,10.0,79,0.00,,,0.00,Wunderground v.1.15,2013-09-28 09:04:00,
2013-09-28 04:06:00,68.7,61.9,29.55,SSE,150,8.0,10.0,79,0.00,,,0.00,Wunderground v.1.15,2013-09-28 09:06:00,
2013-09-28 04:10:00,68.6,61.8,29.55,SSE,163,8.0,10.0,79,0.00,,,0.00,Wunderground v.1.15,2013-09-28 09:10:00,
2013-09-28 04:12:00,68.6,61.8,29.55,East,82,8.0,12.0,79,0.00,,,0.00,Wunderground v.1.15,2013-09-28 09:12:00,
2013-09-28 04:16:00,68.8,62.0,29.54,SE,139,8.0,12.0,79,0.00,,,0.00,Wunderground v.1.15,2013-09-28 09:16:00,
2013-09-28 04:18:00,68.8,62.0,29.55,SSE,160,8.0,12.0,79,0.00,,,0.00,Wunderground v.1.15,2013-09-28 09:18:00,
2013-09-28 04:24:00,68.8,62.0,29.54,SSE,162,7.0,10.0,79,0.00,,,0.00,Wunderground v.1.15,2013-09-28 09:24:00,
2013-09-28 04:26:00,68.8,62.0,29.54,SSE,153,7.0,10.0,79,0.00,,,0.00,Wunderground v.1.15,2013-09-28 09:26:00,
2013-09-28 04:32:00,69.1,61.9,29.54,ESE,123,8.0,13.0,78,0.00,,,0.00,Wunderground v.1.15,2013-09-28 09:32:00,
2013-09-28 04:34:00,69.3,62.1,29.53,SSE,164,8.0,13.0,78,0.00,,,0.00,Wunderground v.1.15,2013-09-28 09:34:00,
2013-09-28 04:40:00,69.4,61.9,29.53,SSE,154,9.0,10.0,77,0.00,,,0.00,Wunderground v.1.15,2013-09-28 09:40:00,
2013-09-28 04:42:00,69.5,62.0,29.54,SSE,162,9.0,10.0,77,0.00,,,0.00,Wunderground v.1.15,2013-09-28 09:42:00,
2013-09-28 04:46:00,69.4,61.9,29.53,South,169,9.0,11.0,77,0.00,,,0.00,Wunderground v.1.15,2013-09-28 09:46:00,
2013-09-28 04:48:00,69.5,62.0,29.53,SE,139,9.0,11.0,77,0.00,,,0.00,Wunderground v.1.15,2013-09-28 09:48:00,
2013-09-28 04:50:00,69.5,62.0,29.53,SE,143,9.0,10.0,77,0.00,,,0.00,Wunderground v.1.15,2013-09-28 09:50:00,
2013-09-28 04:56:00,69.7,62.2,29.54,SE,145,9.0,10.0,77,0.00,,,0.00,Wunderground v.1.15,2013-09-28 09:56:00,
2013-09-28 05:02:00,69.7,62.2,29.55,SE,135,6.0,10.0,77,0.00,,,0.00,Wunderground v.1.15,2013-09-28 10:02:00,
2013-09-28 05:04:00,69.7,61.8,29.56,SSE,153,6.0,10.0,76,0.00,,,0.00,Wunderground v.1.15,2013-09-28 10:04:00,
2013-09-28 05:06:00,69.7,61.8,29.56,SE,139,5.0,10.0,76,0.00,,,0.00,Wunderground v.1.15,2013-09-28 10:06:00,
2013-09-28 05:08:00,69.7,62.2,29.55,SE,124,6.0,10.0,77,0.00,,,0.00,Wunderground v.1.15,2013-09-28 10:08:00,
2013-09-28 05:10:00,69.7,62.2,29.55,South,187,5.0,5.0,77,0.00,,,0.00,Wunderground v.1.15,2013-09-28 10:10:00,
2013-09-28 05:12:00,69.7,62.2,29.55,South,188,5.0,10.0,77,0.00,,,0.00,Wunderground v.1.15,2013-09-28 10:12:00,
2013-09-28 05:14:00,69.6,62.1,29.56,South,185,5.0,10.0,77,0.00,,,0.00,Wunderground v.1.15,2013-09-28 10:14:00,
2013-09-28 05:18:00,69.7,61.8,29.56,SE,142,5.0,10.0,76,0.00,,,0.00,Wunderground v.1.15,2013-09-28 10:18:00,
2013-09-28 05:20:00,69.7,62.2,29.56,SW,231,5.0,10.0,77,0.00,,,0.00,Wunderground v.1.15,2013-09-28 10:20:00,
2013-09-28 05:22:00,69.7,61.8,29.56,SW,218,6.0,10.0,76,0.00,,,0.00,Wunderground v.1.15,2013-09-28 10:22:00,
2013-09-28 05:24:00,69.6,61.7,29.56,SW,235,7.0,11.0,76,0.00,,,0.00,Wunderground v.1.15,2013-09-28 10:24:00,
2013-09-28 05:28:00,69.5,62.0,29.56,SE,145,6.0,11.0,77,0.00,,,0.00,Wunderground v.1.15,2013-09-28 10:28:00,
2013-09-28 05:30:00,69.4,61.9,29.56,SW,224,6.0,10.0,77,0.00,,,0.00,Wunderground v.1.15,2013-09-28 10:30:00,
2013-09-28 05:34:00,69.1,61.9,29.56,SSW,195,6.0,10.0,78,0.00,,,0.00,Wunderground v.1.15,2013-09-28 10:34:00,
2013-09-28 05:36:00,69.1,61.9,29.56,WSW,239,5.0,10.0,78,0.00,,,0.00,Wunderground v.1.15,2013-09-28 10:36:00,
2013-09-28 05:38:00,69.0,61.9,29.56,SW,231,6.0,10.0,78,0.00,,,0.00,Wunderground v.1.15,2013-09-28 10:38:00,
2013-09-28 05:40:00,68.9,61.8,29.56,SSE,147,6.0,6.0,78,0.00,,,0.00,Wunderground v.1.15,2013-09-28 10:40:00,
2013-09-28 05:42:00,68.8,61.7,29.56,SSE,167,6.0,10.0,78,0.00,,,0.00,Wunderground v.1.15,2013-09-28 10:42:00,
2013-09-28 05:44:00,68.7,61.9,29.56,SSE,163,5.0,10.0,79,0.00,,,0.00,Wunderground v.1.15,2013-09-28 10:44:00,
2013-09-28 05:46:00,68.6,61.8,29.56,SSE,148,5.0,10.0,79,0.00,,,0.00,Wunderground v.1.15,2013-09-28 10:46:00,
2013-09-28 05:48:00,68.6,61.8,29.56,SE,135,5.0,10.0,79,0.00,,,0.00,Wunderground v.1.15,2013-09-28 10:48:00,
2013-09-28 05:50:00,68.5,61.7,29.56,SW,218,4.0,10.0,79,0.00,,,0.00,Wunderground v.1.15,2013-09-28 10:50:00,
2013-09-28 05:52:00,68.4,62.0,29.56,SSW,193,4.0,10.0,80,0.00,,,0.00,Wunderground v.1.15,2013-09-28 10:52:00,
2013-09-28 05:54:00,68.4,62.0,29.55,SE,138,4.0,10.0,80,0.00,,,0.00,Wunderground v.1.15,2013-09-28 10:54:00,
2013-09-28 05:58:00,68.2,62.1,29.56,SW,222,3.0,10.0,81,0.00,,,0.00,Wunderground v.1.15,2013-09-28 10:58:00,
2013-09-28 06:00:00,68.1,62.0,29.56,SSW,197,3.0,10.0,81,0.00,,,0.00,Wunderground v.1.15,2013-09-28 11:00:00,
2013-09-28 06:02:00,68.0,61.9,29.55,SE,136,3.0,10.0,81,0.00,,,0.00,Wunderground v.1.15,2013-09-28 11:02:00,
2013-09-28 06:04:00,68.0,62.3,29.55,SE,134,3.0,10.0,82,0.00,,,0.00,Wunderground v.1.15,2013-09-28 11:04:00,
2013-09-28 06:08:00,67.7,62.0,29.55,South,176,3.0,10.0,82,0.00,,,0.00,Wunderground v.1.15,2013-09-28 11:08:00,
2013-09-28 06:10:00,67.7,62.0,29.55,WSW,239,3.0,3.0,82,0.00,,,0.00,Wunderground v.1.15,2013-09-28 11:10:00,
2013-09-28 06:14:00,67.5,62.2,29.56,South,179,3.0,10.0,83,0.00,,,0.00,Wunderground v.1.15,2013-09-28 11:14:00,
2013-09-28 06:16:00,67.4,61.7,29.56,SSW,204,3.0,10.0,82,0.00,,,0.00,Wunderground v.1.15,2013-09-28 11:16:00,
2013-09-28 06:20:00,67.4,62.1,29.57,SE,139,3.0,10.0,83,0.00,,,0.00,Wunderground v.1.15,2013-09-28 11:20:00,
2013-09-28 06:26:00,67.3,62.3,29.57,SE,139,3.0,10.0,84,0.00,,,0.00,Wunderground v.1.15,2013-09-28 11:26:00,
2013-09-28 06:28:00,67.3,62.3,29.57,SSE,148,3.0,10.0,84,0.00,,,0.00,Wunderground v.1.15,2013-09-28 11:28:00,
2013-09-28 06:30:00,67.3,62.3,29.57,ESE,122,3.0,10.0,84,0.00,,,0.00,Wunderground v.1.15,2013-09-28 11:30:00,
2013-09-28 06:32:00,67.2,62.5,29.57,South,186,3.0,10.0,85,0.00,,,0.00,Wunderground v.1.15,2013-09-28 11:32:00,
2013-09-28 06:34:00,67.1,62.8,29.57,SSE,153,3.0,10.0,86,0.00,,,0.01,Wunderground v.1.15,2013-09-28 11:34:00,
2013-09-28 06:38:00,66.6,62.6,29.57,SSW,193,3.0,10.0,87,0.19,,,0.03,Wunderground v.1.15,2013-09-28 11:38:00,
2013-09-28 06:40:00,66.4,62.7,29.57,SSE,163,3.0,10.0,88,0.19,,,0.03,Wunderground v.1.15,2013-09-28 11:40:00,
2013-09-28 06:42:00,66.2,62.5,29.57,SSW,194,3.0,10.0,88,0.15,,,0.03,Wunderground v.1.15,2013-09-28 11:42:00,
2013-09-28 06:44:00,66.0,62.7,29.57,SW,226,3.0,10.0,89,0.13,,,0.04,Wunderground v.1.15,2013-09-28 11:44:00,
2013-09-28 06:46:00,65.8,62.8,29.57,SSW,194,3.0,10.0,90,0.13,,,0.04,Wunderground v.1.15,2013-09-28 11:46:00,
2013-09-28 06:50:00,65.5,62.8,29.57,SSW,211,3.0,3.0,91,0.11,,,0.05,Wunderground v.1.15,2013-09-28 11:50:00,
2013-09-28 06:52:00,65.4,62.7,29.57,SW,234,3.0,10.0,91,0.11,,,0.05,Wunderground v.1.15,2013-09-28 11:52:00,
2013-09-28 06:56:00,65.1,62.7,29.56,SSW,207,3.0,10.0,92,0.08,,,0.05,Wunderground v.1.15,2013-09-28 11:56:00,
2013-09-28 06:58:00,65.0,62.6,29.56,South,176,4.0,10.0,92,0.07,,,0.06,Wunderground v.1.15,2013-09-28 11:58:00,
2013-09-28 07:00:00,64.9,62.5,29.56,SSW,197,5.0,5.0,92,0.07,,,0.06,Wunderground v.1.15,2013-09-28 12:00:00,
2013-09-28 07:02:00,64.8,62.7,29.56,South,174,5.0,10.0,93,0.07,,,0.06,Wunderground v.1.15,2013-09-28 12:02:00,
2013-09-28 07:04:00,64.8,62.7,29.56,SW,235,5.0,10.0,93,0.07,,,0.06,Wunderground v.1.15,2013-09-28 12:04:00,
2013-09-28 07:06:00,64.7,62.6,29.56,South,174,5.0,10.0,93,0.06,,,0.06,Wunderground v.1.15,2013-09-28 12:06:00,
2013-09-28 07:08:00,64.7,62.9,29.57,SSW,210,5.0,10.0,94,0.05,,,0.06,Wunderground v.1.15,2013-09-28 12:08:00,
2013-09-28 07:10:00,64.7,62.9,29.56,SSW,204,5.0,10.0,94,0.04,,,0.06,Wunderground v.1.15,2013-09-28 12:10:00,
2013-09-28 07:14:00,64.7,62.9,29.55,SW,224,6.0,13.0,94,0.04,,,0.07,Wunderground v.1.15,2013-09-28 12:14:00,
2013-09-28 07:16:00,64.7,62.9,29.56,SSE,150,7.0,13.0,94,0.04,,,0.07,Wunderground v.1.15,2013-09-28 12:16:00,
2013-09-28 07:18:00,64.8,63.3,29.55,SW,229,7.0,13.0,95,0.04,,,0.07,Wunderground v.1.15,2013-09-28 12:18:00,
2013-09-28 07:22:00,64.8,63.3,29.56,SSW,196,7.0,10.0,95,0.04,,,0.07,Wunderground v.1.15,2013-09-28 12:22:00,
2013-09-28 07:24:00,64.8,63.3,29.55,SW,216,8.0,10.0,95,0.04,,,0.07,Wunderground v.1.15,2013-09-28 12:24:00,
2013-09-28 07:26:00,64.9,63.4,29.55,South,178,7.0,10.0,95,0.04,,,0.07,Wunderground v.1.15,2013-09-28 12:26:00,
2013-09-28 07:28:00,64.9,63.4,29.55,SSW,210,7.0,10.0,95,0.00,,,0.07,Wunderground v.1.15,2013-09-28 12:28:00,
2013-09-28 07:36:00,65.0,63.5,29.55,WSW,240,7.0,12.0,95,0.00,,,0.07,Wunderground v.1.15,2013-09-28 12:36:00,
2013-09-28 07:38:00,65.0,63.5,29.55,SW,231,7.0,12.0,95,0.00,,,0.08,Wunderground v.1.15,2013-09-28 12:38:00,
2013-09-28 07:42:00,65.0,63.5,29.55,WSW,248,7.0,12.0,95,0.00,,,0.08,Wunderground v.1.15,2013-09-28 12:42:00,
2013-09-28 07:44:00,65.0,63.5,29.54,SE,143,6.0,12.0,95,0.00,,,0.08,Wunderground v.1.15,2013-09-28 12:44:00,
2013-09-28 07:46:00,65.0,63.5,29.54,SE,139,6.0,12.0,95,0.00,,,0.08,Wunderground v.1.15,2013-09-28 12:46:00,
2013-09-28 07:48:00,65.0,63.8,29.54,SSE,167,5.0,12.0,96,0.00,,,0.08,Wunderground v.1.15,2013-09-28 12:48:00,
2013-09-28 07:50:00,65.0,63.8,29.54,South,188,4.0,10.0,96,0.00,,,0.08,Wunderground v.1.15,2013-09-28 12:50:00,
2013-09-28 07:54:00,65.0,63.8,29.52,SSE,150,3.0,10.0,96,0.04,,,0.09,Wunderground v.1.15,2013-09-28 12:54:00,
2013-09-28 07:56:00,65.0,63.8,29.51,South,174,4.0,10.0,96,0.04,,,0.09,Wunderground v.1.15,2013-09-28 12:56:00,
2013-09-28 07:58:00,65.0,63.8,29.52,SW,222,3.0,10.0,96,0.04,,,0.09,Wunderground v.1.15,2013-09-28 12:58:00,
2013-09-28 08:02:00,65.0,63.8,29.53,SSW,207,3.0,6.0,96,0.04,,,0.09,Wunderground v.1.15,2013-09-28 13:02:00,
2013-09-28 08:04:00,65.0,63.8,29.53,West,271,3.0,10.0,96,0.04,,,0.09,Wunderground v.1.15,2013-09-28 13:04:00,
2013-09-28 08:08:00,65.0,63.8,29.54,SW,215,3.0,10.0,96,0.04,,,0.09,Wunderground v.1.15,2013-09-28 13:08:00,
2013-09-28 08:10:00,65.0,63.8,29.54,SSW,212,3.0,10.0,96,0.04,,,0.09,Wunderground v.1.15,2013-09-28 13:10:00,
2013-09-28 08:14:00,65.0,63.8,29.55,WSW,248,3.0,10.0,96,0.00,,,0.09,Wunderground v.1.15,2013-09-28 13:14:00,
2013-09-28 08:16:00,65.0,63.8,29.55,SW,221,3.0,10.0,96,0.00,,,0.09,Wunderground v.1.15,2013-09-28 13:16:00,
2013-09-28 08:18:00,65.0,63.8,29.55,WSW,245,4.0,10.0,96,0.00,,,0.09,Wunderground v.1.15,2013-09-28 13:18:00,
2013-09-28 08:24:00,63.7,61.6,29.56,WSW,244,5.0,10.0,93,0.00,,,0.09,Wunderground v.1.15,2013-09-28 13:24:00,
2013-09-28 08:26:00,63.2,61.1,29.57,SW,228,5.0,10.0,93,0.00,,,0.09,Wunderground v.1.15,2013-09-28 13:26:00,
2013-09-28 08:28:00,62.7,60.6,29.57,SW,232,6.0,10.0,93,0.00,,,0.09,Wunderground v.1.15,2013-09-28 13:28:00,
2013-09-28 08:30:00,62.1,60.1,29.57,SSW,197,6.0,6.0,93,0.00,,,0.09,Wunderground v.1.15,2013-09-28 13:30:00,
2013-09-28 08:32:00,61.6,59.6,29.57,SW,228,6.0,7.0,93,0.00,,,0.09,Wunderground v.1.15,2013-09-28 13:32:00,
2013-09-28 08:34:00,61.3,59.3,29.58,SW,222,7.0,8.0,93,0.00,,,0.09,Wunderground v.1.15,2013-09-28 13:34:00,
2013-09-28 08:38:00,59.9,57.6,29.59,SSW,210,8.0,10.0,92,0.00,,,0.09,Wunderground v.1.15,2013-09-28 13:38:00,
2013-09-28 08:40:00,59.2,56.9,29.59,SSW,210,8.0,10.0,92,0.00,,,0.09,Wunderground v.1.15,2013-09-28 13:40:00,
2013-09-28 08:42:00,58.6,56.0,29.59,WSW,238,9.0,10.0,91,0.00,,,0.09,Wunderground v.1.15,2013-09-28 13:42:00,
2013-09-28 08:44:00,58.0,55.7,29.59,WSW,252,9.0,10.0,92,0.00,,,0.09,Wunderground v.1.15,2013-09-28 13:44:00,
2013-09-28 08:46:00,57.6,55.6,29.60,SSW,207,8.0,10.0,93,0.00,,,0.09,Wunderground v.1.15,2013-09-28 13:46:00,
2013-09-28 08:48:00,57.2,55.2,29.60,SSW,207,7.0,10.0,93,0.00,,,0.09,Wunderground v.1.15,2013-09-28 13:48:00,
2013-09-28 08:52:00,56.5,54.5,29.60,West,278,6.0,10.0,93,0.00,,,0.09,Wunderground v.1.15,2013-09-28 13:52:00,
2013-09-28 08:54:00,56.1,54.1,29.60,SW,235,6.0,10.0,93,0.00,,,0.09,Wunderground v.1.15,2013-09-28 13:54:00,
2013-09-28 08:56:00,55.8,54.1,29.60,WSW,240,6.0,10.0,94,0.00,,,0.09,Wunderground v.1.15,2013-09-28 13:56:00,
2013-09-28 09:00:00,55.3,53.6,29.60,West,264,7.0,7.0,94,0.00,,,0.09,Wunderground v.1.15,2013-09-28 14:00:00,
2013-09-28 09:02:00,55.1,53.4,29.60,SSW,200,7.0,8.0,94,0.00,,,0.09,Wunderground v.1.15,2013-09-28 14:02:00,
2013-09-28 09:06:00,54.8,53.4,29.61,South,191,7.0,10.0,95,0.00,,,0.09,Wunderground v.1.15,2013-09-28 14:06:00,
2013-09-28 09:08:00,54.7,53.3,29.60,SE,135,7.0,10.0,95,0.00,,,0.09,Wunderground v.1.15,2013-09-28 14:08:00,
2013-09-28 09:10:00,54.6,53.2,29.61,West,266,6.0,6.0,95,0.00,,,0.09,Wunderground v.1.15,2013-09-28 14:10:00,
2013-09-28 09:14:00,54.4,53.0,29.62,WSW,256,6.0,12.0,95,0.00,,,0.09,Wunderground v.1.15,2013-09-28 14:14:00,
2013-09-28 09:16:00,54.3,52.9,29.62,SW,221,6.0,12.0,95,0.00,,,0.09,Wunderground v.1.15,2013-09-28 14:16:00,
2013-09-28 09:20:00,54.2,52.8,29.62,SSW,204,6.0,6.0,95,0.00,,,0.09,Wunderground v.1.15,2013-09-28 14:20:00,
2013-09-28 09:22:00,54.2,53.1,29.63,West,260,5.0,10.0,96,0.00,,,0.09,Wunderground v.1.15,2013-09-28 14:22:00,
2013-09-28 09:24:00,54.2,53.1,29.63,WSW,245,4.0,10.0,96,0.00,,,0.09,Wunderground v.1.15,2013-09-28 14:24:00,
2013-09-28 09:26:00,54.1,53.0,29.63,SW,224,4.0,10.0,96,0.00,,,0.09,Wunderground v.1.15,2013-09-28 14:26:00,
2013-09-28 09:28:00,54.0,52.9,29.63,SW,235,4.0,10.0,96,0.00,,,0.09,Wunderground v.1.15,2013-09-28 14:28:00,
2013-09-28 09:32:00,53.8,52.4,29.64,South,172,4.0,10.0,95,0.00,,,0.09,Wunderground v.1.15,2013-09-28 14:32:00,
2013-09-28 09:38:00,53.7,52.3,29.64,SW,219,4.0,10.0,95,0.00,,,0.09,Wunderground v.1.15,2013-09-28 14:38:00,
2013-09-28 09:40:00,53.6,52.2,29.64,SW,221,4.0,10.0,95,0.00,,,0.09,Wunderground v.1.15,2013-09-28 14:40:00,
2013-09-28 09:44:00,53.6,52.2,29.65,West,267,4.0,10.0,95,0.00,,,0.09,Wunderground v.1.15,2013-09-28 14:44:00,
2013-09-28 09:46:00,53.6,52.2,29.65,SW,221,4.0,10.0,95,0.00,,,0.09,Wunderground v.1.15,2013-09-28 14:46:00,
2013-09-28 09:52:00,53.5,52.1,29.66,SSW,210,4.0,10.0,95,0.00,,,0.09,Wunderground v.1.15,2013-09-28 14:52:00,
2013-09-28 09:54:00,53.5,52.1,29.66,SW,220,4.0,10.0,95,0.00,,,0.09,Wunderground v.1.15,2013-09-28 14:54:00,
2013-09-28 09:58:00,53.5,52.1,29.66,WSW,238,4.0,10.0,95,0.00,,,0.09,Wunderground v.1.15,2013-09-28 14:58:00,
2013-09-28 10:00:00,53.4,52.0,29.66,SSW,202,4.0,10.0,95,0.00,,,0.09,Wunderground v.1.15,2013-09-28 15:00:00,
2013-09-28 10:02:00,53.4,52.0,29.66,WNW,302,4.0,10.0,95,0.00,,,0.09,Wunderground v.1.15,2013-09-28 15:02:00,
2013-09-28 10:06:00,53.4,52.0,29.66,SW,236,4.0,10.0,95,0.00,,,0.09,Wunderground v.1.15,2013-09-28 15:06:00,
2013-09-28 10:08:00,53.3,51.9,29.67,West,262,4.0,10.0,95,0.00,,,0.09,Wunderground v.1.15,2013-09-28 15:08:00,
2013-09-28 10:10:00,53.3,52.2,29.67,WSW,240,4.0,10.0,96,0.00,,,0.10,Wunderground v.1.15,2013-09-28 15:10:00,
2013-09-28 10:14:00,53.3,52.2,29.67,SW,232,4.0,10.0,96,0.00,,,0.10,Wunderground v.1.15,2013-09-28 15:14:00,
2013-09-28 10:18:00,53.4,52.3,29.67,West,266,4.0,10.0,96,0.00,,,0.10,Wunderground v.1.15,2013-09-28 15:18:00,
2013-09-28 10:20:00,53.4,52.3,29.68,SSW,194,4.0,4.0,96,0.00,,,0.10,Wunderground v.1.15,2013-09-28 15:20:00,
2013-09-28 10:24:00,53.4,52.3,29.68,WNW,291,4.0,10.0,96,0.00,,,0.10,Wunderground v.1.15,2013-09-28 15:24:00,
2013-09-28 10:28:00,53.4,52.3,29.68,WSW,255,3.0,10.0,96,0.00,,,0.10,Wunderground v.1.15,2013-09-28 15:28:00,
2013-09-28 10:30:00,53.4,52.3,29.68,West,259,3.0,10.0,96,0.00,,,0.10,Wunderground v.1.15,2013-09-28 15:30:00,
2013-09-28 10:32:00,53.3,52.2,29.68,SW,231,3.0,10.0,96,0.00,,,0.10,Wunderground v.1.15,2013-09-28 15:32:00,
2013-09-28 10:38:00,53.2,52.1,29.69,SSE,162,3.0,10.0,96,0.00,,,0.10,Wunderground v.1.15,2013-09-28 15:38:00,
2013-09-28 10:40:00,53.2,52.1,29.69,WSW,256,3.0,10.0,96,0.00,,,0.10,Wunderground v.1.15,2013-09-28 15:40:00,
2013-09-28 10:48:00,53.1,52.0,29.69,West,266,5.0,10.0,96,0.00,,,0.10,Wunderground v.1.15,2013-09-28 15:48:00,
2013-09-28 10:50:00,53.2,52.1,29.69,SSW,212,5.0,10.0,96,0.00,,,0.10,Wunderground v.1.15,2013-09-28 15:50:00,
2013-09-28 10:56:00,53.1,52.0,29.70,South,174,4.0,10.0,96,0.00,,,0.10,Wunderground v.1.15,2013-09-28 15:56:00,
2013-09-28 10:58:00,53.1,52.0,29.69,East,93,4.0,10.0,96,0.00,,,0.10,Wunderground v.1.15,2013-09-28 15:58:00,
2013-09-28 11:00:00,53.1,52.0,29.69,South,185,4.0,4.0,96,0.00,,,0.10,Wunderground v.1.15,2013-09-28 16:00:00,
2013-09-28 11:02:00,53.0,51.9,29.69,WNW,283,4.0,10.0,96,0.00,,,0.10,Wunderground v.1.15,2013-09-28 16:02:00,
2013-09-28 11:04:00,53.1,52.0,29.69,SSW,205,4.0,10.0,96,0.00,,,0.10,Wunderground v.1.15,2013-09-28 16:04:00,
2013-09-28 11:06:00,53.1,52.0,29.69,WSW,238,3.0,10.0,96,0.00,,,0.10,Wunderground v.1.15,2013-09-28 16:06:00,
2013-09-28 11:08:00,53.2,52.1,29.69,SSE,165,3.0,10.0,96,0.00,,,0.10,Wunderground v.1.15,2013-09-28 16:08:00,
2013-09-28 11:10:00,53.2,52.1,29.70,SSW,204,3.0,10.0,96,0.00,,,0.10,Wunderground v.1.15,2013-09-28 16:10:00,
2013-09-28 11:14:00,53.2,52.1,29.70,WNW,289,3.0,10.0,96,0.00,,,0.10,Wunderground v.1.15,2013-09-28 16:14:00,
2013-09-28 11:18:00,53.2,52.1,29.70,SSE,167,3.0,10.0,96,0.00,,,0.10,Wunderground v.1.15,2013-09-28 16:18:00,
2013-09-28 11:20:00,53.2,52.1,29.70,NW,320,3.0,3.0,96,0.00,,,0.10,Wunderground v.1.15,2013-09-28 16:20:00,
2013-09-28 11:22:00,53.2,51.8,29.70,NW,307,4.0,5.0,95,0.00,,,0.10,Wunderground v.1.15,2013-09-28 16:22:00,
2013-09-28 11:26:00,53.1,51.7,29.69,NNW,328,4.0,10.0,95,0.00,,,0.10,Wunderground v.1.15,2013-09-28 16:26:00,
2013-09-28 11:32:00,53.2,51.5,29.70,NNW,328,4.0,10.0,94,0.00,,,0.10,Wunderground v.1.15,2013-09-28 16:32:00,
2013-09-28 11:34:00,53.3,51.6,29.70,SW,217,5.0,10.0,94,0.00,,,0.10,Wunderground v.1.15,2013-09-28 16:34:00,
2013-09-28 11:38:00,53.6,51.9,29.70,West,271,4.0,10.0,94,0.00,,,0.10,Wunderground v.1.15,2013-09-28 16:38:00,
2013-09-28 11:40:00,53.9,52.2,29.70,West,275,4.0,10.0,94,0.00,,,0.10,Wunderground v.1.15,2013-09-28 16:40:00,
2013-09-28 11:44:00,54.3,52.3,29.70,WSW,258,4.0,10.0,93,0.00,,,0.10,Wunderground v.1.15,2013-09-28 16:44:00,
2013-09-28 11:46:00,54.4,52.4,29.70,SW,222,4.0,10.0,93,0.00,,,0.10,Wunderground v.1.15,2013-09-28 16:46:00,
2013-09-28 11:52:00,54.7,52.4,29.70,SSE,148,4.0,10.0,92,0.00,,,0.10,Wunderground v.1.15,2013-09-28 16:52:00,
2013-09-28 11:54:00,54.7,52.1,29.70,West,278,4.0,10.0,91,0.00,,,0.10,Wunderground v.1.15,2013-09-28 16:54:00,
2013-09-28 11:58:00,54.8,52.2,29.70,SSW,204,5.0,10.0,91,0.00,,,0.10,Wunderground v.1.15,2013-09-28 16:58:00,
2013-09-28 12:00:00,54.9,52.3,29.70,SW,226,5.0,10.0,91,0.00,,,0.10,Wunderground v.1.15,2013-09-28 17:00:00,
2013-09-28 12:06:00,55.0,52.1,29.71,West,266,5.0,10.0,90,0.00,,,0.10,Wunderground v.1.15,2013-09-28 17:06:00,
2013-09-28 12:10:00,55.3,52.7,29.71,East,95,4.0,6.0,91,0.00,,,0.10,Wunderground v.1.15,2013-09-28 17:10:00,
2013-09-28 12:14:00,55.7,52.5,29.71,WSW,243,4.0,7.0,89,0.00,,,0.10,Wunderground v.1.15,2013-09-28 17:14:00,
2013-09-28 12:16:00,55.8,52.3,29.71,South,186,4.0,7.0,88,0.00,,,0.10,Wunderground v.1.15,2013-09-28 17:16:00,
2013-09-28 12:18:00,55.9,52.1,29.72,NE,51,4.0,7.0,87,0.00,,,0.10,Wunderground v.1.15,2013-09-28 17:18:00,
2013-09-28 12:22:00,56.0,52.2,29.72,SW,229,4.0,8.0,87,0.00,,,0.10,Wunderground v.1.15,2013-09-28 17:22:00,
2013-09-28 12:24:00,56.1,52.0,29.72,West,281,4.0,8.0,86,0.00,,,0.10,Wunderground v.1.15,2013-09-28 17:24:00,
2013-09-28 12:28:00,55.9,51.5,29.72,WNW,292,4.0,8.0,85,0.00,,,0.10,Wunderground v.1.15,2013-09-28 17:28:00,
2013-09-28 12:34:00,56.1,52.6,29.72,SW,222,4.0,5.0,88,0.00,,,0.10,Wunderground v.1.15,2013-09-28 17:34:00,
2013-09-28 12:36:00,56.5,52.7,29.72,WNW,291,4.0,5.0,87,0.00,,,0.10,Wunderground v.1.15,2013-09-28 17:36:00,
2013-09-28 12:38:00,56.6,52.5,29.72,SSE,158,4.0,5.0,86,0.00,,,0.10,Wunderground v.1.15,2013-09-28 17:38:00,
2013-09-28 12:40:00,56.7,52.2,29.73,NW,319,4.0,4.0,85,0.00,,,0.10,Wunderground v.1.15,2013-09-28 17:40:00,
2013-09-28 12:42:00,56.8,52.0,29.73,SW,221,4.0,8.0,84,0.00,,,0.10,Wunderground v.1.15,2013-09-28 17:42:00,
2013-09-28 12:44:00,57.0,52.2,29.73,WNW,293,5.0,8.0,84,0.00,,,0.10,Wunderground v.1.15,2013-09-28 17:44:00,
2013-09-28 12:46:00,57.2,52.4,29.73,SW,214,4.0,8.0,84,0.00,,,0.10,Wunderground v.1.15,2013-09-28 17:46:00,
2013-09-28 12:48:00,57.4,52.3,29.74,WSW,255,4.0,8.0,83,0.00,,,0.10,Wunderground v.1.15,2013-09-28 17:48:00,
2013-09-28 12:50:00,57.4,51.9,29.73,WNW,297,4.0,4.0,82,0.00,,,0.10,Wunderground v.1.15,2013-09-28 17:50:00,
2013-09-28 12:54:00,57.5,52.0,29.73,South,170,4.0,5.0,82,0.00,,,0.10,Wunderground v.1.15,2013-09-28 17:54:00,
2013-09-28 12:56:00,57.7,52.6,29.73,South,191,4.0,5.0,83,0.00,,,0.10,Wunderground v.1.15,2013-09-28 17:56:00,
2013-09-28 12:58:00,57.9,52.8,29.73,SSW,201,4.0,5.0,83,0.00,,,0.10,Wunderground v.1.15,2013-09-28 17:58:00,
2013-09-28 13:00:00,58.0,52.2,29.73,West,273,4.0,4.0,81,0.00,,,0.10,Wunderground v.1.15,2013-09-28 18:00:00,
2013-09-28 13:02:00,58.2,52.4,29.73,WSW,240,4.0,5.0,81,0.00,,,0.10,Wunderground v.1.15,2013-09-28 18:02:00,
2013-09-28 13:06:00,58.5,52.0,29.74,NE,53,4.0,11.0,79,0.00,,,0.10,Wunderground v.1.15,2013-09-28 18:06:00,
2013-09-28 13:08:00,58.5,52.0,29.74,WNW,293,4.0,11.0,79,0.00,,,0.10,Wunderground v.1.15,2013-09-28 18:08:00,
2013-09-28 13:10:00,58.4,51.9,29.74,SSW,205,4.0,11.0,79,0.00,,,0.10,Wunderground v.1.15,2013-09-28 18:10:00,
2013-09-28 13:12:00,58.4,51.9,29.74,WSW,246,4.0,11.0,79,0.00,,,0.10,Wunderground v.1.15,2013-09-28 18:12:00,
2013-09-28 13:14:00,58.4,51.9,29.74,WNW,300,4.0,11.0,79,0.00,,,0.10,Wunderground v.1.15,2013-09-28 18:14:00,
2013-09-28 13:18:00,58.4,51.6,29.74,West,273,4.0,11.0,78,0.00,,,0.10,Wunderground v.1.15,2013-09-28 18:18:00,
2013-09-28 13:22:00,58.3,51.5,29.75,West,262,4.0,11.0,78,0.00,,,0.10,Wunderground v.1.15,2013-09-28 18:22:00,
2013-09-28 13:24:00,58.2,51.0,29.74,SW,231,4.0,11.0,77,0.00,,,0.10,Wunderground v.1.15,2013-09-28 18:24:00,
2013-09-28 13:26:00,58.0,50.8,29.75,SSW,193,4.0,11.0,77,0.00,,,0.10,Wunderground v.1.15,2013-09-28 18:26:00,
2013-09-28 13:30:00,58.0,50.8,29.75,WNW,302,4.0,11.0,77,0.00,,,0.10,Wunderground v.1.15,2013-09-28 18:30:00,
2013-09-28 13:32:00,58.1,50.9,29.75,SSW,194,4.0,11.0,77,0.00,,,0.10,Wunderground v.1.15,2013-09-28 18:32:00,
2013-09-28 13:36:00,58.2,51.0,29.75,SSE,148,4.0,11.0,77,0.00,,,0.10,Wunderground v.1.15,2013-09-28 18:36:00,
2013-09-28 13:38:00,58.1,50.6,29.75,WSW,252,4.0,11.0,76,0.00,,,0.10,Wunderground v.1.15,2013-09-28 18:38:00,
2013-09-28 13:42:00,57.8,50.6,29.75,West,263,4.0,11.0,77,0.00,,,0.10,Wunderground v.1.15,2013-09-28 18:42:00,
2013-09-28 13:44:00,57.7,50.2,29.75,SE,134,4.0,11.0,76,0.00,,,0.10,Wunderground v.1.15,2013-09-28 18:44:00,
2013-09-28 13:48:00,57.5,50.3,29.75,WSW,248,5.0,11.0,77,0.00,,,0.10,Wunderground v.1.15,2013-09-28 18:48:00,
2013-09-28 13:52:00,57.2,49.7,29.75,SW,233,5.0,7.0,76,0.00,,,0.10,Wunderground v.1.15,2013-09-28 18:52:00,
2013-09-28 13:54:00,57.1,49.6,29.75,SSW,200,5.0,11.0,76,0.00,,,0.10,Wunderground v.1.15,2013-09-28 18:54:00,
2013-09-28 13:58:00,57.2,49.3,29.75,SW,233,5.0,11.0,75,0.00,,,0.10,Wunderground v.1.15,2013-09-28 18:58:00,
2013-09-28 14:02:00,57.4,49.9,29.76,NW,325,4.0,11.0,76,0.00,,,0.10,Wunderground v.1.15,2013-09-28 19:02:00,
2013-09-28 14:08:00,57.1,49.2,29.76,WSW,257,4.0,11.0,75,0.00,,,0.10,Wunderground v.1.15,2013-09-28 19:08:00,
2013-09-28 14:10:00,57.1,49.2,29.76,NW,313,4.0,11.0,75,0.00,,,0.10,Wunderground v.1.15,2013-09-28 19:10:00,
2013-09-28 14:16:00,57.2,49.3,29.77,WSW,252,4.0,11.0,75,0.00,,,0.10,Wunderground v.1.15,2013-09-28 19:16:00,
2013-09-28 14:22:00,57.5,49.3,29.76,West,281,3.0,11.0,74,0.00,,,0.10,Wunderground v.1.15,2013-09-28 19:22:00,
2013-09-28 14:26:00,57.8,49.6,29.76,SW,235,4.0,11.0,74,0.00,,,0.10,Wunderground v.1.15,2013-09-28 19:26:00,
2013-09-28 14:28:00,58.0,49.8,29.76,SW,223,4.0,11.0,74,0.00,,,0.10,Wunderground v.1.15,2013-09-28 19:28:00,
2013-09-28 14:30:00,58.1,49.5,29.76,SSW,212,4.0,4.0,73,0.00,,,0.10,Wunderground v.1.15,2013-09-28 19:30:00,
2013-09-28 14:32:00,58.2,49.6,29.76,WSW,249,4.0,11.0,73,0.00,,,0.10,Wunderground v.1.15,2013-09-28 19:32:00,
2013-09-28 14:36:00,58.3,49.7,29.76,West,260,4.0,11.0,73,0.00,,,0.10,Wunderground v.1.15,2013-09-28 19:36:00,
2013-09-28 14:42:00,60.0,51.3,29.76,WSW,250,4.0,11.0,73,0.00,,,0.10,Wunderground v.1.15,2013-09-28 19:42:00,
2013-09-28 14:44:00,60.4,50.2,29.76,SSW,198,4.0,11.0,69,0.00,,,0.10,Wunderground v.1.15,2013-09-28 19:44:00,
2013-09-28 14:50:00,61.6,50.5,29.76,West,278,5.0,11.0,67,0.00,,,0.10,Wunderground v.1.15,2013-09-28 19:50:00,
2013-09-28 14:52:00,61.9,50.4,29.76,West,266,5.0,11.0,66,0.00,,,0.10,Wunderground v.1.15,2013-09-28 19:52:00,
2013-09-28 14:54:00,61.9,50.4,29.76,WSW,252,4.0,11.0,66,0.00,,,0.10,Wunderground v.1.15,2013-09-28 19:54:00,
2013-09-28 14:58:00,61.6,50.1,29.77,SSW,210,5.0,11.0,66,0.00,,,0.10,Wunderground v.1.15,2013-09-28 19:58:00,
2013-09-28 15:00:00,61.6,49.7,29.77,WSW,248,4.0,11.0,65,0.00,,,0.10,Wunderground v.1.15,2013-09-28 20:00:00,
2013-09-28 15:06:00,62.1,50.6,29.78,WSW,244,5.0,11.0,66,0.00,,,0.10,Wunderground v.1.15,2013-09-28 20:06:00,
2013-09-28 15:08:00,62.3,50.0,29.77,SW,229,5.0,11.0,64,0.00,,,0.10,Wunderground v.1.15,2013-09-28 20:08:00,
2013-09-28 15:10:00,62.6,50.2,29.77,SSW,193,5.0,11.0,64,0.00,,,0.10,Wunderground v.1.15,2013-09-28 20:10:00,
2013-09-28 15:16:00,63.6,49.9,29.77,WSW,238,6.0,11.0,61,0.00,,,0.10,Wunderground v.1.15,2013-09-28 20:16:00,
2013-09-28 15:22:00,63.5,49.8,29.78,NNW,330,5.0,11.0,61,0.00,,,0.10,Wunderground v.1.15,2013-09-28 20:22:00,
2013-09-28 15:28:00,64.7,49.6,29.78,South,177,4.0,11.0,58,0.00,,,0.10,Wunderground v.1.15,2013-09-28 20:28:00,
2013-09-28 15:34:00,64.6,49.5,29.77,SSW,205,5.0,11.0,58,0.00,,,0.10,Wunderground v.1.15,2013-09-28 20:34:00,
2013-09-28 15:40:00,65.0,48.9,29.78,North,6,5.0,5.0,56,0.00,,,0.10,Wunderground v.1.15,2013-09-28 20:40:00,
2013-09-28 15:42:00,65.1,49.0,29.78,WSW,248,4.0,8.0,56,0.00,,,0.10,Wunderground v.1.15,2013-09-28 20:42:00,
2013-09-28 15:44:00,65.1,49.0,29.78,SSE,149,4.0,11.0,56,0.00,,,0.10,Wunderground v.1.15,2013-09-28 20:44:00,
2013-09-28 15:48:00,64.4,48.4,29.78,SSW,197,4.0,11.0,56,0.00,,,0.10,Wunderground v.1.15,2013-09-28 20:48:00,
2013-09-28 15:50:00,63.8,47.8,29.78,NNW,336,4.0,4.0,56,0.00,,,0.10,Wunderground v.1.15,2013-09-28 20:50:00,
2013-09-28 15:56:00,63.4,46.9,29.78,WNW,297,4.0,11.0,55,0.00,,,0.10,Wunderground v.1.15,2013-09-28 20:56:00,
2013-09-28 15:58:00,63.0,47.1,29.78,SSW,205,4.0,11.0,56,0.00,,,0.10,Wunderground v.1.15,2013-09-28 20:58:00,
2013-09-28 16:00:00,62.7,47.2,29.78,West,277,4.0,4.0,57,0.00,,,0.10,Wunderground v.1.15,2013-09-28 21:00:00,
2013-09-28 16:06:00,63.5,48.0,29.78,SSW,207,4.0,11.0,57,0.00,,,0.10,Wunderground v.1.15,2013-09-28 21:06:00,
2013-09-28 16:08:00,64.0,47.5,29.78,NW,304,4.0,11.0,55,0.00,,,0.10,Wunderground v.1.15,2013-09-28 21:08:00,
2013-09-28 16:10:00,64.4,47.4,29.78,West,278,4.0,11.0,54,0.00,,,0.10,Wunderground v.1.15,2013-09-28 21:10:00,
2013-09-28 16:14:00,64.8,47.8,29.78,SW,218,4.0,11.0,54,0.00,,,0.10,Wunderground v.1.15,2013-09-28 21:14:00,
2013-09-28 16:18:00,65.0,46.9,29.78,East,82,5.0,11.0,52,0.00,,,0.10,Wunderground v.1.15,2013-09-28 21:18:00,
2013-09-28 16:22:00,64.9,46.8,29.78,WSW,239,5.0,11.0,52,0.00,,,0.10,Wunderground v.1.15,2013-09-28 21:22:00,
2013-09-28 16:26:00,64.9,46.3,29.79,SSW,212,5.0,11.0,51,0.00,,,0.10,Wunderground v.1.15,2013-09-28 21:26:00,
2013-09-28 16:28:00,64.7,46.1,29.79,SE,134,5.0,11.0,51,0.00,,,0.10,Wunderground v.1.15,2013-09-28 21:28:00,
2013-09-28 16:32:00,64.6,46.1,29.79,NNE,25,5.0,11.0,51,0.00,,,0.10,Wunderground v.1.15,2013-09-28 21:32:00,
2013-09-28 16:34:00,64.6,46.6,29.79,SW,222,4.0,11.0,52,0.00,,,0.10,Wunderground v.1.15,2013-09-28 21:34:00,
2013-09-28 16:36:00,64.7,47.2,29.79,SSW,200,4.0,11.0,53,0.00,,,0.10,Wunderground v.1.15,2013-09-28 21:36:00,
2013-09-28 16:38:00,65.0,46.9,29.79,SW,235,4.0,11.0,52,0.00,,,0.10,Wunderground v.1.15,2013-09-28 21:38:00,
2013-09-28 16:40:00,65.0,46.4,29.79,SSW,207,4.0,11.0,51,0.00,,,0.10,Wunderground v.1.15,2013-09-28 21:40:00,
2013-09-28 16:46:00,64.9,45.8,29.79,WNW,291,4.0,11.0,50,0.00,,,0.10,Wunderground v.1.15,2013-09-28 21:46:00,
2013-09-28 16:48:00,64.9,45.8,29.79,WNW,291,4.0,11.0,50,0.00,,,0.10,Wunderground v.1.15,2013-09-28 21:48:00,
2013-09-28 16:54:00,65.3,46.2,29.79,SSW,204,3.0,11.0,50,0.00,,,0.10,Wunderground v.1.15,2013-09-28 21:54:00,
2013-09-28 16:56:00,65.3,46.7,29.79,West,276,3.0,11.0,51,0.00,,,0.10,Wunderground v.1.15,2013-09-28 21:56:00,
2013-09-28 16:58:00,65.3,46.7,29.79,NW,308,3.0,11.0,51,0.00,,,0.10,Wunderground v.1.15,2013-09-28 21:58:00,
2013-09-28 17:02:00,65.2,46.1,29.80,NW,310,3.0,11.0,50,0.00,,,0.10,Wunderground v.1.15,2013-09-28 22:02:00,
2013-09-28 17:04:00,65.1,45.5,29.80,SSW,201,3.0,11.0,49,0.00,,,0.10,Wunderground v.1.15,2013-09-28 22:04:00,
2013-09-28 17:08:00,65.1,46.0,29.80,SW,236,3.0,11.0,50,0.00,,,0.10,Wunderground v.1.15,2013-09-28 22:08:00,
2013-09-28 17:10:00,65.0,45.4,29.80,SSW,205,3.0,11.0,49,0.00,,,0.10,Wunderground v.1.15,2013-09-28 22:10:00,
2013-09-28 17:14:00,64.8,45.7,29.80,WSW,252,4.0,11.0,50,0.00,,,0.10,Wunderground v.1.15,2013-09-28 22:14:00,
2013-09-28 17:16:00,64.9,45.8,29.80,SW,225,3.0,11.0,50,0.00,,,0.10,Wunderground v.1.15,2013-09-28 22:16:00,
2013-09-28 17:20:00,64.9,44.7,29.80,WSW,240,4.0,11.0,48,0.00,,,0.10,Wunderground v.1.15,2013-09-28 22:20:00,
2013-09-28 17:22:00,64.7,44.5,29.80,West,266,4.0,11.0,48,0.00,,,0.10,Wunderground v.1.15,2013-09-28 22:22:00,
2013-09-28 17:28:00,64.5,44.9,29.80,SW,219,4.0,11.0,49,0.00,,,0.10,Wunderground v.1.15,2013-09-28 22:28:00,
2013-09-28 17:32:00,64.3,44.7,29.81,SW,229,4.0,11.0,49,0.00,,,0.10,Wunderground v.1.15,2013-09-28 22:32:00,
2013-09-28 17:34:00,64.3,44.7,29.80,SW,232,3.0,11.0,49,0.00,,,0.10,Wunderground v.1.15,2013-09-28 22:34:00,
2013-09-28 17:38:00,64.3,44.7,29.81,West,281,3.0,11.0,49,0.00,,,0.10,Wunderground v.1.15,2013-09-28 22:38:00,
2013-09-28 17:40:00,64.3,45.3,29.81,West,270,3.0,11.0,50,0.00,,,0.10,Wunderground v.1.15,2013-09-28 22:40:00,
2013-09-28 17:42:00,64.3,44.7,29.81,ESE,110,3.0,11.0,49,0.00,,,0.10,Wunderground v.1.15,2013-09-28 22:42:00,
2013-09-28 17:46:00,64.2,44.6,29.81,WNW,295,3.0,11.0,49,0.00,,,0.10,Wunderground v.1.15,2013-09-28 22:46:00,
2013-09-28 17:48:00,64.1,44.5,29.81,SE,125,3.0,11.0,49,0.00,,,0.10,Wunderground v.1.15,2013-09-28 22:48:00,
2013-09-28 17:52:00,64.0,45.0,29.81,West,277,3.0,11.0,50,0.00,,,0.10,Wunderground v.1.15,2013-09-28 22:52:00,
2013-09-28 17:54:00,64.0,45.0,29.81,WNW,297,3.0,11.0,50,0.00,,,0.10,Wunderground v.1.15,2013-09-28 22:54:00,
2013-09-28 17:58:00,63.9,44.9,29.81,ESE,122,3.0,11.0,50,0.00,,,0.10,Wunderground v.1.15,2013-09-28 22:58:00,
2013-09-28 18:02:00,63.9,45.4,29.81,WSW,238,2.0,11.0,51,0.00,,,0.10,Wunderground v.1.15,2013-09-28 23:02:00,
2013-09-28 18:06:00,63.9,44.9,29.81,NW,311,2.0,11.0,50,0.00,,,0.10,Wunderground v.1.15,2013-09-28 23:06:00,
2013-09-28 18:10:00,63.5,44.5,29.81,SW,219,2.0,11.0,50,0.00,,,0.10,Wunderground v.1.15,2013-09-28 23:10:00,
2013-09-28 18:12:00,63.3,44.9,29.82,SSW,201,2.0,11.0,51,0.00,,,0.10,Wunderground v.1.15,2013-09-28 23:12:00,
2013-09-28 18:14:00,63.0,44.1,29.82,SSE,160,2.0,11.0,50,0.00,,,0.10,Wunderground v.1.15,2013-09-28 23:14:00,
2013-09-28 18:16:00,62.8,44.4,29.82,SSW,206,2.0,11.0,51,0.00,,,0.10,Wunderground v.1.15,2013-09-28 23:16:00,
2013-09-28 18:18:00,62.6,44.2,29.82,SW,236,3.0,11.0,51,0.00,,,0.10,Wunderground v.1.15,2013-09-28 23:18:00,
2013-09-28 18:24:00,61.8,44.5,29.82,WSW,238,2.0,11.0,53,0.00,,,0.10,Wunderground v.1.15,2013-09-28 23:24:00,
2013-09-28 18:26:00,61.4,44.1,29.82,SW,228,2.0,11.0,53,0.00,,,0.10,Wunderground v.1.15,2013-09-28 23:26:00,
2013-09-28 18:30:00,60.8,44.5,29.82,WSW,240,2.0,11.0,55,0.00,,,0.10,Wunderground v.1.15,2013-09-28 23:30:00,
2013-09-28 18:32:00,60.6,44.3,29.82,WSW,255,2.0,11.0,55,0.00,,,0.10,Wunderground v.1.15,2013-09-28 23:32:00,
2013-09-28 18:36:00,60.0,44.3,29.83,SW,219,2.0,11.0,56,0.00,,,0.10,Wunderground v.1.15,2013-09-28 23:36:00,
2013-09-28 18:38:00,59.7,44.4,29.83,SW,226,2.0,11.0,57,0.00,,,0.10,Wunderground v.1.15,2013-09-28 23:38:00,
2013-09-28 18:44:00,59.0,44.7,29.83,SW,228,1.0,11.0,59,0.00,,,0.10,Wunderground v.1.15,2013-09-28 23:44:00,
2013-09-28 18:46:00,58.7,44.8,29.83,SW,228,1.0,11.0,60,0.00,,,0.10,Wunderground v.1.15,2013-09-28 23:46:00,
2013-09-28 18:48:00,58.5,44.7,29.83,SW,221,1.0,11.0,60,0.00,,,0.10,Wunderground v.1.15,2013-09-28 23:48:00,
2013-09-28 18:52:00,58.0,44.6,29.83,SW,226,1.0,11.0,61,0.00,,,0.10,Wunderground v.1.15,2013-09-28 23:52:00,
2013-09-28 18:54:00,57.8,44.4,29.83,WSW,258,1.0,11.0,61,0.00,,,0.10,Wunderground v.1.15,2013-09-28 23:54:00,
2013-09-28 19:00:00,56.8,44.3,29.84,SW,232,1.0,11.0,63,0.00,,,0.10,Wunderground v.1.15,2013-09-29 00:00:00,
2013-09-28 19:02:00,56.6,44.6,29.84,SW,232,1.0,11.0,64,0.00,,,0.10,Wunderground v.1.15,2013-09-29 00:02:00,
2013-09-28 19:04:00,56.3,44.3,29.84,SW,232,0.0,11.0,64,0.00,,,0.10,Wunderground v.1.15,2013-09-29 00:04:00,
2013-09-28 19:06:00,56.0,44.4,29.84,SW,234,0.0,11.0,65,0.00,,,0.10,Wunderground v.1.15,2013-09-29 00:06:00,
2013-09-28 19:10:00,55.5,44.3,29.84,SW,235,0.0,11.0,66,0.00,,,0.10,Wunderground v.1.15,2013-09-29 00:10:00,
2013-09-28 19:12:00,55.1,43.9,29.84,SW,235,0.0,11.0,66,0.00,,,0.10,Wunderground v.1.15,2013-09-29 00:12:00,
2013-09-28 19:18:00,54.3,44.0,29.84,SW,235,0.0,11.0,68,0.00,,,0.10,Wunderground v.1.15,2013-09-29 00:18:00,
2013-09-28 19:20:00,53.9,43.6,29.84,WSW,237,0.0,11.0,68,0.00,,,0.10,Wunderground v.1.15,2013-09-29 00:20:00,
2013-09-28 19:22:00,53.6,43.7,29.85,SW,236,0.0,11.0,69,0.00,,,0.10,Wunderground v.1.15,2013-09-29 00:22:00,
2013-09-28 19:24:00,53.4,43.5,29.85,SW,236,0.0,11.0,69,0.00,,,0.10,Wunderground v.1.15,2013-09-29 00:24:00,
2013-09-28 19:30:00,52.6,43.5,29.85,SW,233,0.0,11.0,71,0.00,,,0.10,Wunderground v.1.15,2013-09-29 00:30:00,
2013-09-28 19:32:00,52.3,43.5,29.85,SW,233,0.0,11.0,72,0.00,,,0.10,Wunderground v.1.15,2013-09-29 00:32:00,
2013-09-28 19:34:00,52.1,43.3,29.85,SW,233,0.0,11.0,72,0.00,,,0.10,Wunderground v.1.15,2013-09-29 00:34:00,
2013-09-28 19:36:00,51.9,43.5,29.85,SW,233,0.0,11.0,73,0.00,,,0.10,Wunderground v.1.15,2013-09-29 00:36:00,
2013-09-28 19:40:00,51.4,43.4,29.86,SW,233,0.0,11.0,74,0.00,,,0.10,Wunderground v.1.15,2013-09-29 00:40:00,
2013-09-28 19:42:00,51.2,43.2,29.86,SW,233,0.0,11.0,74,0.00,,,0.10,Wunderground v.1.15,2013-09-29 00:42:00,
2013-09-28 19:44:00,51.0,43.4,29.86,SW,233,0.0,11.0,75,0.00,,,0.10,Wunderground v.1.15,2013-09-29 00:44:00,
2013-09-28 19:48:00,50.5,43.2,29.86,SW,235,0.0,11.0,76,0.00,,,0.10,Wunderground v.1.15,2013-09-29 00:48:00,
2013-09-28 19:50:00,50.2,43.3,29.86,SW,235,0.0,11.0,77,0.00,,,0.10,Wunderground v.1.15,2013-09-29 00:50:00,
2013-09-28 19:52:00,50.0,43.1,29.86,SW,235,0.0,11.0,77,0.00,,,0.10,Wunderground v.1.15,2013-09-29 00:52:00,
2013-09-28 19:54:00,49.9,43.0,29.86,SW,236,0.0,11.0,77,0.00,,,0.10,Wunderground v.1.15,2013-09-29 00:54:00,
2013-09-28 19:56:00,49.8,43.2,29.86,SW,236,0.0,11.0,78,0.00,,,0.10,Wunderground v.1.15,2013-09-29 00:56:00,
2013-09-28 20:00:00,49.5,42.9,29.86,SW,229,0.0,11.0,78,0.00,,,0.10,Wunderground v.1.15,2013-09-29 01:00:00,
2013-09-28 20:02:00,49.3,42.7,29.87,SW,229,0.0,11.0,78,0.00,,,0.10,Wunderground v.1.15,2013-09-29 01:02:00,
2013-09-28 20:06:00,48.9,42.3,29.87,SW,229,0.0,11.0,78,0.00,,,0.10,Wunderground v.1.15,2013-09-29 01:06:00,
2013-09-28 20:08:00,48.7,42.5,29.87,SW,229,0.0,11.0,79,0.00,,,0.10,Wunderground v.1.15,2013-09-29 01:08:00,
2013-09-28 20:14:00,48.1,41.9,29.87,SW,229,0.0,11.0,79,0.00,,,0.10,Wunderground v.1.15,2013-09-29 01:14:00,
2013-09-28 20:16:00,47.8,41.9,29.87,SW,229,0.0,11.0,80,0.00,,,0.10,Wunderground v.1.15,2013-09-29 01:16:00,
2013-09-28 20:20:00,47.3,41.4,29.87,SW,229,0.0,11.0,80,0.00,,,0.10,Wunderground v.1.15,2013-09-29 01:20:00,
2013-09-28 20:22:00,47.0,41.1,29.87,SW,229,0.0,11.0,80,0.00,,,0.10,Wunderground v.1.15,2013-09-29 01:22:00,
2013-09-28 20:24:00,46.8,41.3,29.87,SW,229,0.0,11.0,81,0.00,,,0.10,Wunderground v.1.15,2013-09-29 01:24:00,
2013-09-28 20:26:00,46.6,41.1,29.87,SW,229,0.0,11.0,81,0.00,,,0.10,Wunderground v.1.15,2013-09-29 01:26:00,
2013-09-28 20:28:00,46.4,41.2,29.87,SW,229,0.0,11.0,82,0.00,,,0.10,Wunderground v.1.15,2013-09-29 01:28:00,
2013-09-28 20:32:00,46.0,41.1,29.88,SW,229,0.0,11.0,83,0.00,,,0.10,Wunderground v.1.15,2013-09-29 01:32:00,
2013-09-28 20:36:00,45.7,41.1,29.88,SW,229,0.0,11.0,84,0.00,,,0.10,Wunderground v.1.15,2013-09-29 01:36:00,
2013-09-28 20:40:00,45.6,41.4,29.88,SW,229,0.0,11.0,85,0.00,,,0.10,Wunderground v.1.15,2013-09-29 01:40:00,
2013-09-28 20:42:00,45.6,41.4,29.88,SW,229,0.0,11.0,85,0.00,,,0.10,Wunderground v.1.15,2013-09-29 01:42:00,
2013-09-28 20:44:00,45.6,41.7,29.88,SW,229,0.0,11.0,86,0.00,,,0.10,Wunderground v.1.15,2013-09-29 01:44:00,
2013-09-28 20:48:00,45.6,41.7,29.88,SW,229,0.0,11.0,86,0.00,,,0.10,Wunderground v.1.15,2013-09-29 01:48:00,
2013-09-28 20:50:00,45.5,41.6,29.88,SW,229,0.0,11.0,86,0.00,,,0.10,Wunderground v.1.15,2013-09-29 01:50:00,
2013-09-28 20:52:00,45.5,41.6,29.88,SW,229,0.0,11.0,86,0.00,,,0.10,Wunderground v.1.15,2013-09-29 01:52:00,
2013-09-28 20:56:00,45.8,42.2,29.89,WSW,238,0.0,11.0,87,0.00,,,0.10,Wunderground v.1.15,2013-09-29 01:56:00,
2013-09-28 21:02:00,46.6,42.6,29.89,SW,225,1.0,11.0,86,0.00,,,0.10,Wunderground v.1.15,2013-09-29 02:02:00,
2013-09-28 21:04:00,46.9,42.6,29.89,SW,233,1.0,11.0,85,0.00,,,0.10,Wunderground v.1.15,2013-09-29 02:04:00,
2013-09-28 21:10:00,47.3,42.7,29.89,SW,233,1.0,1.0,84,0.00,,,0.10,Wunderground v.1.15,2013-09-29 02:10:00,
2013-09-28 21:14:00,47.4,42.8,29.89,SSW,198,0.0,11.0,84,0.00,,,0.10,Wunderground v.1.15,2013-09-29 02:14:00,
2013-09-28 21:16:00,47.5,42.9,29.88,SW,236,0.0,11.0,84,0.00,,,0.10,Wunderground v.1.15,2013-09-29 02:16:00,
2013-09-28 21:22:00,48.1,43.2,29.89,SW,233,1.0,11.0,83,0.00,,,0.10,Wunderground v.1.15,2013-09-29 02:22:00,
2013-09-28 21:26:00,48.1,42.9,29.89,SW,233,1.0,11.0,82,0.00,,,0.10,Wunderground v.1.15,2013-09-29 02:26:00,
2013-09-28 21:30:00,48.1,42.9,29.89,SW,226,1.0,1.0,82,0.00,,,0.10,Wunderground v.1.15,2013-09-29 02:30:00,
2013-09-28 21:32:00,48.1,42.9,29.89,SW,218,1.0,11.0,82,0.00,,,0.10,Wunderground v.1.15,2013-09-29 02:32:00,
2013-09-28 21:36:00,48.1,42.9,29.89,SW,221,1.0,11.0,82,0.00,,,0.10,Wunderground v.1.15,2013-09-29 02:36:00,
2013-09-28 21:42:00,48.1,42.9,29.89,SW,221,1.0,11.0,82,0.00,,,0.10,Wunderground v.1.15,2013-09-29 02:42:00,
2013-09-28 21:44:00,48.0,42.8,29.89,SW,221,0.0,11.0,82,0.00,,,0.10,Wunderground v.1.15,2013-09-29 02:44:00,
2013-09-28 21:46:00,48.0,43.1,29.89,SW,222,0.0,11.0,83,0.00,,,0.10,Wunderground v.1.15,2013-09-29 02:46:00,
2013-09-28 21:52:00,47.9,43.0,29.89,SSW,210,0.0,11.0,83,0.00,,,0.10,Wunderground v.1.15,2013-09-29 02:52:00,
2013-09-28 21:54:00,48.0,43.1,29.89,South,183,0.0,11.0,83,0.00,,,0.10,Wunderground v.1.15,2013-09-29 02:54:00,
2013-09-28 22:00:00,48.1,42.9,29.89,SW,235,2.0,2.0,82,0.00,,,0.10,Wunderground v.1.15,2013-09-29 03:00:00,
2013-09-28 22:02:00,48.1,42.9,29.89,SW,232,2.0,11.0,82,0.00,,,0.10,Wunderground v.1.15,2013-09-29 03:02:00,
2013-09-28 22:04:00,48.1,42.9,29.89,SW,235,2.0,11.0,82,0.00,,,0.10,Wunderground v.1.15,2013-09-29 03:04:00,
2013-09-28 22:08:00,47.9,42.7,29.89,SW,226,1.0,11.0,82,0.00,,,0.10,Wunderground v.1.15,2013-09-29 03:08:00,
2013-09-28 22:14:00,47.8,42.9,29.89,South,173,1.0,11.0,83,0.00,,,0.10,Wunderground v.1.15,2013-09-29 03:14:00,
2013-09-28 22:20:00,47.7,42.8,29.90,SW,219,1.0,11.0,83,0.00,,,0.10,Wunderground v.1.15,2013-09-29 03:20:00,
2013-09-28 22:26:00,47.9,42.7,29.90,SW,235,2.0,11.0,82,0.00,,,0.10,Wunderground v.1.15,2013-09-29 03:26:00,
2013-09-28 22:28:00,47.9,42.7,29.90,SW,231,2.0,11.0,82,0.00,,,0.10,Wunderground v.1.15,2013-09-29 03:28:00,
2013-09-28 22:32:00,47.9,42.7,29.90,SW,228,1.0,11.0,82,0.00,,,0.10,Wunderground v.1.15,2013-09-29 03:32:00,
2013-09-28 22:34:00,47.9,42.7,29.90,SW,226,1.0,11.0,82,0.00,,,0.10,Wunderground v.1.15,2013-09-29 03:34:00,
2013-09-28 22:40:00,47.6,42.4,29.90,SW,214,0.0,11.0,82,0.00,,,0.10,Wunderground v.1.15,2013-09-29 03:40:00,
2013-09-28 22:46:00,47.5,42.3,29.90,SW,226,1.0,11.0,82,0.00,,,0.10,Wunderground v.1.15,2013-09-29 03:46:00,
2013-09-28 22:52:00,47.3,42.4,29.90,SSW,205,1.0,11.0,83,0.00,,,0.10,Wunderground v.1.15,2013-09-29 03:52:00,
2013-09-28 22:56:00,47.1,42.2,29.90,SSW,198,1.0,11.0,83,0.00,,,0.10,Wunderground v.1.15,2013-09-29 03:56:00,
2013-09-28 23:02:00,46.9,42.0,29.90,SW,217,1.0,11.0,83,0.00,,,0.10,Wunderground v.1.15,2013-09-29 04:02:00,
2013-09-28 23:04:00,46.8,41.9,29.90,SSW,204,1.0,11.0,83,0.00,,,0.10,Wunderground v.1.15,2013-09-29 04:04:00,
2013-09-28 23:06:00,46.9,42.0,29.90,SW,224,1.0,11.0,83,0.00,,,0.10,Wunderground v.1.15,2013-09-29 04:06:00,
2013-09-28 23:08:00,46.8,41.9,29.90,SW,219,1.0,11.0,83,0.00,,,0.10,Wunderground v.1.15,2013-09-29 04:08:00,
2013-09-28 23:10:00,46.8,41.9,29.90,SSW,205,1.0,11.0,83,0.00,,,0.10,Wunderground v.1.15,2013-09-29 04:10:00,
2013-09-28 23:12:00,46.8,41.9,29.90,SW,224,2.0,11.0,83,0.00,,,0.10,Wunderground v.1.15,2013-09-29 04:12:00,
2013-09-28 23:14:00,46.7,42.1,29.90,SW,225,1.0,11.0,84,0.00,,,0.10,Wunderground v.1.15,2013-09-29 04:14:00,
2013-09-28 23:16:00,46.7,41.8,29.90,SW,225,1.0,11.0,83,0.00,,,0.10,Wunderground v.1.15,2013-09-29 04:16:00,
2013-09-28 23:20:00,46.6,42.0,29.90,SW,232,2.0,11.0,84,0.00,,,0.10,Wunderground v.1.15,2013-09-29 04:20:00,
2013-09-28 23:24:00,46.5,41.9,29.90,SW,226,2.0,11.0,84,0.00,,,0.10,Wunderground v.1.15,2013-09-29 04:24:00,
2013-09-28 23:28:00,46.5,41.9,29.90,SW,218,2.0,11.0,84,0.00,,,0.10,Wunderground v.1.15,2013-09-29 04:28:00,
2013-09-28 23:30:00,46.5,41.9,29.90,SW,215,2.0,11.0,84,0.00,,,0.10,Wunderground v.1.15,2013-09-29 04:30:00,
2013-09-28 23:34:00,46.6,41.7,29.90,SW,226,2.0,11.0,83,0.00,,,0.10,Wunderground v.1.15,2013-09-29 04:34:00,
2013-09-28 23:36:00,46.8,41.9,29.90,SW,221,2.0,11.0,83,0.00,,,0.10,Wunderground v.1.15,2013-09-29 04:36:00,
2013-09-28 23:40:00,46.8,41.9,29.90,SW,231,2.0,2.0,83,0.00,,,0.10,Wunderground v.1.15,2013-09-29 04:40:00,
2013-09-28 23:42:00,46.8,41.9,29.90,SW,224,2.0,11.0,83,0.00,,,0.10,Wunderground v.1.15,2013-09-29 04:42:00,
2013-09-28 23:46:00,46.8,41.9,29.90,SW,224,2.0,11.0,83,0.00,,,0.10,Wunderground v.1.15,2013-09-29 04:46:00,
2013-09-28 23:48:00,46.8,41.9,29.90,SW,215,2.0,11.0,83,0.00,,,0.10,Wunderground v.1.15,2013-09-29 04:48:00,
2013-09-28 23:52:00,46.7,41.5,29.90,SW,235,3.0,11.0,82,0.00,,,0.10,Wunderground v.1.15,2013-09-29 04:52:00,
2013-09-28 23:54:00,46.6,41.4,29.91,SW,215,3.0,11.0,82,0.00,,,0.10,Wunderground v.1.15,2013-09-29 04:54:00,
2013-09-28 23:56:00,46.7,41.5,29.91,WSW,247,3.0,11.0,82,0.00,,,0.10,Wunderground v.1.15,2013-09-29 04:56:00,